| time (UTC) | temp F | wind direction | speed MPH | gust MPH | rain 1hr in | rain 24hr in | rain mn in | humidity % | barometer mb |
| 20260507225155 | 60 | 314 | 1.0 | 5.0 | 0.00 | 0.00 | 0.00 | 25 | 1008.6 |
| 20260507224654 | 60 | 298 | 1.0 | 6.0 | 0.00 | 0.00 | 0.00 | 26 | 1008.6 |
| 20260507224156 | 59 | 306 | 2.0 | 6.0 | 0.00 | 0.00 | 0.00 | 25 | 1008.5 |
| 20260507223655 | 59 | 5 | 1.0 | 6.0 | 0.00 | 0.00 | 0.00 | 25 | 1008.6 |
| 20260507223152 | 59 | 321 | 1.0 | 6.0 | 0.00 | 0.00 | 0.00 | 25 | 1008.6 |
| 20260507222915 | 59 | 325 | 1.0 | 5.0 | 0.00 | 0.00 | 0.00 | 25 | 1008.6 |
| 20260507222151 | 59 | 281 | 1.0 | 6.0 | 0.00 | 0.00 | 0.00 | 27 | 1008.8 |
| 20260507221912 | 58 | 273 | 0.0 | 6.0 | 0.00 | 0.00 | 0.00 | 27 | 1008.7 |
| 20260507221149 | 58 | 297 | 1.0 | 9.0 | 0.00 | 0.00 | 0.00 | 24 | 1008.7 |
| 20260507220909 | 59 | 316 | 1.0 | 9.0 | 0.00 | 0.00 | 0.00 | 25 | 1008.8 |
| 20260507220146 | 59 | 319 | 1.0 | 4.0 | 0.00 | 0.00 | 0.00 | 26 | 1008.8 |
| 20260507215645 | 59 | 310 | 2.0 | 7.0 | 0.00 | 0.00 | 0.00 | 25 | 1008.9 |
| 20260507215146 | 59 | 322 | 1.0 | 8.0 | 0.00 | 0.00 | 0.00 | 25 | 1008.9 |
| 20260507214913 | 59 | 333 | 1.0 | 8.0 | 0.00 | 0.00 | 0.00 | 26 | 1008.9 |
| 20260507214414 | 59 | 319 | 1.0 | 7.0 | 0.00 | 0.00 | 0.00 | 25 | 1008.8 |
| 20260507213646 | 60 | 5 | 1.0 | 7.0 | 0.00 | 0.00 | 0.00 | 26 | 1008.9 |
| 20260507213405 | 59 | 295 | 1.0 | 6.0 | 0.00 | 0.00 | 0.00 | 26 | 1009.0 |
| 20260507212644 | 59 | 227 | 0.0 | 4.0 | 0.00 | 0.00 | 0.00 | 25 | 1008.9 |
| 20260507212143 | 59 | 333 | 0.0 | 5.0 | 0.00 | 0.00 | 0.00 | 25 | 1009.0 |
| 20260507211645 | 59 | 217 | 0.0 | 5.0 | 0.00 | 0.00 | 0.00 | 27 | 1009.0 |
| 20260507211142 | 59 | 0 | 1.0 | 7.0 | 0.00 | 0.00 | 0.00 | 26 | 1009.0 |
| 20260507210642 | 59 | 287 | 1.0 | 9.0 | 0.00 | 0.00 | 0.00 | 25 | 1009.1 |
| 20260507210141 | 60 | 254 | 1.0 | 9.0 | 0.00 | 0.00 | 0.00 | 26 | 1009.2 |
| 20260507205909 | 59 | 296 | 1.0 | 3.0 | 0.00 | 0.00 | 0.00 | 27 | 1009.2 |
| 20260507205356 | 58 | 71 | 1.0 | 5.0 | 0.00 | 0.00 | 0.00 | 26 | 1009.2 |
| 20260507204642 | 58 | 250 | 2.0 | 7.0 | 0.00 | 0.00 | 0.00 | 26 | 1009.4 |
| 20260507204138 | 59 | 227 | 2.0 | 7.0 | 0.00 | 0.00 | 0.00 | 26 | 1009.4 |
| 20260507203641 | 58 | 259 | 2.0 | 8.0 | 0.00 | 0.00 | 0.00 | 28 | 1009.5 |
| 20260507203138 | 59 | 251 | 2.0 | 8.0 | 0.00 | 0.00 | 0.00 | 27 | 1009.5 |
| 20260507202640 | 58 | 5 | 1.0 | 6.0 | 0.00 | 0.00 | 0.00 | 26 | 1009.5 |
| 20260507202138 | 58 | 355 | 2.0 | 6.0 | 0.00 | 0.00 | 0.00 | 26 | 1009.6 |
| 20260507201643 | 57 | 340 | 1.0 | 6.0 | 0.00 | 0.00 | 0.00 | 27 | 1009.6 |
| 20260507201137 | 58 | 296 | 1.0 | 10.0 | 0.00 | 0.00 | 0.00 | 27 | 1009.6 |
| 20260507200639 | 58 | 329 | 1.0 | 10.0 | 0.00 | 0.00 | 0.00 | 26 | 1009.7 |
| 20260507200135 | 58 | 255 | 0.0 | 6.0 | 0.00 | 0.00 | 0.00 | 27 | 1009.7 |
| 20260507195633 | 57 | 5 | 1.0 | 6.0 | 0.00 | 0.00 | 0.00 | 26 | 1009.8 |
| 20260507195128 | 57 | 314 | 1.0 | 6.0 | 0.00 | 0.00 | 0.00 | 28 | 1009.9 |
| 20260507194628 | 56 | 275 | 0.0 | 5.0 | 0.00 | 0.00 | 0.00 | 27 | 1009.9 |
| 20260507194128 | 58 | 311 | 1.0 | 5.0 | 0.00 | 0.00 | 0.00 | 28 | 1010.0 |
| 20260507193629 | 57 | 273 | 1.0 | 9.0 | 0.00 | 0.00 | 0.00 | 27 | 1010.0 |
| 20260507193126 | 56 | 284 | 1.0 | 9.0 | 0.00 | 0.00 | 0.00 | 28 | 1010.0 |
| 20260507192624 | 56 | 335 | 1.0 | 6.0 | 0.00 | 0.00 | 0.00 | 26 | 1010.0 |
| 20260507192126 | 57 | 342 | 1.0 | 6.0 | 0.00 | 0.00 | 0.00 | 28 | 1010.2 |
| 20260507191848 | 58 | 313 | 1.0 | 9.0 | 0.00 | 0.00 | 0.00 | 27 | 1010.2 |
| 20260507191124 | 57 | 229 | 1.0 | 9.0 | 0.00 | 0.00 | 0.00 | 28 | 1010.2 |
| 20260507190845 | 58 | 312 | 1.0 | 9.0 | 0.00 | 0.00 | 0.00 | 26 | 1010.2 |
| 20260507190124 | 58 | 24 | 1.0 | 7.0 | 0.00 | 0.00 | 0.00 | 29 | 1010.2 |
| 20260507185624 | 57 | 355 | 1.0 | 6.0 | 0.00 | 0.00 | 0.00 | 27 | 1010.3 |
| 20260507185122 | 56 | 329 | 0.0 | 6.0 | 0.00 | 0.00 | 0.00 | 28 | 1010.3 |
| 20260507185109 | 55 | 319 | 1.0 | 6.0 | 0.00 | 0.00 | 0.00 | 27 | 1010.3 |
| 20260507184121 | 56 | 336 | 1.0 | 6.0 | 0.00 | 0.00 | 0.00 | 27 | 1010.3 |
| 20260507183623 | 56 | 333 | 1.0 | 5.0 | 0.00 | 0.00 | 0.00 | 27 | 1010.2 |
| 20260507183121 | 56 | 308 | 1.0 | 7.0 | 0.00 | 0.00 | 0.00 | 28 | 1010.3 |
| 20260507182856 | 56 | 319 | 1.0 | 7.0 | 0.00 | 0.00 | 0.00 | 29 | 1010.3 |
| 20260507182337 | 55 | 325 | 1.0 | 8.0 | 0.00 | 0.00 | 0.00 | 30 | 1010.5 |
| 20260507181618 | 54 | 99 | 1.0 | 8.0 | 0.00 | 0.00 | 0.00 | 31 | 1010.5 |
| 20260507181335 | 54 | 302 | 1.0 | 3.0 | 0.00 | 0.00 | 0.00 | 28 | 1010.4 |
| 20260507180614 | 55 | 248 | 1.0 | 4.0 | 0.00 | 0.00 | 0.00 | 30 | 1010.5 |
| 20260507180112 | 56 | 340 | 1.0 | 4.0 | 0.00 | 0.00 | 0.00 | 29 | 1010.6 |
| 20260507175611 | 55 | 319 | 1.0 | 4.0 | 0.00 | 0.00 | 0.00 | 30 | 1010.6 |
| 20260507175110 | 54 | 343 | 1.0 | 6.0 | 0.00 | 0.00 | 0.00 | 29 | 1010.6 |
| 20260507174610 | 54 | 350 | 1.0 | 6.0 | 0.00 | 0.00 | 0.00 | 28 | 1010.8 |
| 20260507174108 | 54 | 355 | 1.0 | 4.0 | 0.00 | 0.00 | 0.00 | 30 | 1010.7 |
| 20260507174046 | 53 | 9 | 0.0 | 4.0 | 0.00 | 0.00 | 0.00 | 28 | 1010.7 |
| 20260507173111 | 53 | 315 | 1.0 | 6.0 | 0.00 | 0.00 | 0.00 | 29 | 1010.9 |
| 20260507172608 | 53 | 350 | 1.0 | 6.0 | 0.00 | 0.00 | 0.00 | 29 | 1010.9 |
| 20260507172109 | 54 | 311 | 1.0 | 6.0 | 0.00 | 0.00 | 0.00 | 29 | 1011.0 |
| 20260507171605 | 54 | 290 | 0.0 | 5.0 | 0.00 | 0.00 | 0.00 | 28 | 1011.0 |
| 20260507171106 | 54 | 141 | 0.0 | 2.0 | 0.00 | 0.00 | 0.00 | 34 | 1011.1 |
| 20260507170605 | 53 | 355 | 1.0 | 3.0 | 0.00 | 0.00 | 0.00 | 30 | 1011.1 |
| 20260507170103 | 53 | 192 | 1.0 | 6.0 | 0.00 | 0.00 | 0.00 | 29 | 1011.1 |
| 20260507165602 | 53 | 348 | 1.0 | 6.0 | 0.00 | 0.00 | 0.00 | 31 | 1011.2 |
| 20260507165323 | 52 | 341 | 1.0 | 6.0 | 0.00 | 0.00 | 0.00 | 32 | 1011.2 |
| 20260507164602 | 52 | 295 | 1.0 | 4.0 | 0.00 | 0.00 | 0.00 | 35 | 1011.3 |
| 20260507164102 | 51 | 320 | 1.0 | 4.0 | 0.00 | 0.00 | 0.00 | 29 | 1011.4 |
| 20260507163831 | 52 | 9 | 1.0 | 4.0 | 0.00 | 0.00 | 0.00 | 32 | 1011.4 |
| 20260507163559 | 52 | 302 | 1.0 | 6.0 | 0.00 | 0.00 | 0.00 | 32 | 1011.4 |
| 20260507162600 | 52 | 322 | 0.0 | 6.0 | 0.00 | 0.00 | 0.00 | 33 | 1011.4 |
| 20260507162058 | 52 | 320 | 0.0 | 2.0 | 0.00 | 0.00 | 0.00 | 35 | 1011.4 |
| 20260507161559 | 52 | 96 | 0.0 | 3.0 | 0.00 | 0.00 | 0.00 | 34 | 1011.5 |
| 20260507161058 | 51 | 20 | 1.0 | 6.0 | 0.00 | 0.00 | 0.00 | 32 | 1011.6 |
| 20260507160823 | 50 | 24 | 2.0 | 6.0 | 0.00 | 0.00 | 0.00 | 34 | 1011.5 |
| 20260507160053 | 51 | 296 | 2.0 | 5.0 | 0.00 | 0.00 | 0.00 | 33 | 1011.5 |
| 20260507155545 | 51 | 338 | 1.0 | 5.0 | 0.00 | 0.00 | 0.00 | 35 | 1011.5 |
| 20260507155047 | 50 | 219 | 1.0 | 4.0 | 0.00 | 0.00 | 0.00 | 39 | 1011.5 |
| 20260507154544 | 50 | 340 | 1.0 | 4.0 | 0.00 | 0.00 | 0.00 | 37 | 1011.5 |
| 20260507154044 | 50 | 120 | 1.0 | 3.0 | 0.00 | 0.00 | 0.00 | 45 | 1011.5 |
| 20260507153544 | 49 | 126 | 1.0 | 5.0 | 0.00 | 0.00 | 0.00 | 39 | 1011.6 |
| 20260507153043 | 49 | 323 | 1.0 | 5.0 | 0.00 | 0.00 | 0.00 | 38 | 1011.6 |
| 20260507152808 | 49 | 0 | 1.0 | 4.0 | 0.00 | 0.00 | 0.00 | 37 | 1011.6 |
| 20260507152300 | 49 | 299 | 0.0 | 2.0 | 0.00 | 0.00 | 0.00 | 43 | 1011.6 |
| 20260507151537 | 49 | 343 | 0.0 | 4.0 | 0.00 | 0.00 | 0.00 | 40 | 1011.7 |
| 20260507151039 | 49 | 242 | 1.0 | 4.0 | 0.00 | 0.00 | 0.00 | 42 | 1011.6 |
| 20260507150538 | 49 | 125 | 1.0 | 3.0 | 0.00 | 0.00 | 0.00 | 43 | 1011.6 |
| 20260507150038 | 49 | 146 | 1.0 | 3.0 | 0.00 | 0.00 | 0.00 | 45 | 1011.6 |
| 20260507145538 | 49 | 262 | 0.0 | 3.0 | 0.00 | 0.00 | 0.00 | 42 | 1011.6 |
| 20260507145037 | 48 | 265 | 1.0 | 4.0 | 0.00 | 0.00 | 0.00 | 44 | 1011.7 |
| 20260507144537 | 48 | 265 | 1.0 | 4.0 | 0.00 | 0.00 | 0.00 | 43 | 1011.7 |
| 20260507144038 | 48 | 264 | 1.0 | 4.0 | 0.00 | 0.00 | 0.00 | 45 | 1011.8 |
| 20260507143806 | 48 | 312 | 0.0 | 3.0 | 0.00 | 0.00 | 0.00 | 44 | 1011.7 |
| 20260507143038 | 48 | 220 | 1.0 | 3.0 | 0.00 | 0.00 | 0.00 | 46 | 1011.7 |
| 20260507142538 | 47 | 248 | 1.0 | 3.0 | 0.00 | 0.00 | 0.00 | 45 | 1011.8 |
| 20260507142037 | 46 | 323 | 0.0 | 2.0 | 0.00 | 0.00 | 0.00 | 47 | 1011.8 |
| 20260507141539 | 46 | 350 | 1.0 | 5.0 | 0.00 | 0.00 | 0.00 | 50 | 1011.9 |
| 20260507141039 | 46 | 334 | 1.0 | 5.0 | 0.00 | 0.00 | 0.00 | 48 | 1011.9 |
| 20260507140536 | 46 | 309 | 1.0 | 4.0 | 0.00 | 0.00 | 0.00 | 52 | 1011.9 |
| 20260507140036 | 45 | 213 | 1.0 | 4.0 | 0.00 | 0.00 | 0.00 | 51 | 1011.9 |
| 20260507135800 | 45 | 0 | 0.0 | 3.0 | 0.00 | 0.00 | 0.00 | 51 | 1012.0 |
| 20260507135036 | 45 | 355 | 1.0 | 3.0 | 0.00 | 0.00 | 0.00 | 52 | 1012.0 |
| 20260507134753 | 45 | 269 | 1.0 | 3.0 | 0.00 | 0.00 | 0.00 | 56 | 1012.0 |
| 20260507134036 | 44 | 246 | 0.0 | 3.0 | 0.00 | 0.00 | 0.00 | 56 | 1012.0 |
| 20260507133535 | 44 | 238 | 0.0 | 3.0 | 0.00 | 0.00 | 0.00 | 60 | 1012.0 |
| 20260507133037 | 43 | 237 | 0.0 | 3.0 | 0.00 | 0.00 | 0.00 | 60 | 1012.0 |
| 20260507132735 | 42 | 244 | 0.0 | 2.0 | 0.00 | 0.00 | 0.00 | 65 | 1012.1 |
| 20260507132625 | 43 | 244 | 0.0 | 2.0 | 0.00 | 0.00 | 0.00 | 64 | 1012.1 |
| 20260507131536 | 41 | 240 | 0.0 | 0.0 | 0.00 | 0.00 | 0.00 | 71 | 1012.1 |
| 20260507131036 | 38 | 234 | 0.0 | 0.0 | 0.00 | 0.00 | 0.00 | 79 | 1012.1 |
| 20260507130755 | 37 | 234 | 0.0 | 0.0 | 0.00 | 0.00 | 0.00 | 80 | 1012.1 |
| 20260507130037 | 36 | 234 | 0.0 | 0.0 | 0.00 | 0.00 | 0.00 | 82 | 1012.1 |
| 20260507125535 | 36 | 234 | 0.0 | 0.0 | 0.00 | 0.00 | 0.00 | 83 | 1012.1 |
| 20260507125037 | 35 | 234 | 0.0 | 0.0 | 0.00 | 0.00 | 0.00 | 84 | 1012.2 |
| 20260507124535 | 35 | 234 | 0.0 | 0.0 | 0.00 | 0.00 | 0.00 | 84 | 1012.2 |
| 20260507124036 | 34 | 234 | 0.0 | 0.0 | 0.00 | 0.00 | 0.00 | 85 | 1012.2 |
| 20260507123536 | 34 | 234 | 0.0 | 0.0 | 0.00 | 0.00 | 0.00 | 85 | 1012.2 |
| 20260507123036 | 33 | 234 | 0.0 | 0.0 | 0.00 | 0.00 | 0.00 | 85 | 1012.3 |
| 20260507122536 | 33 | 234 | 0.0 | 0.0 | 0.00 | 0.00 | 0.00 | 85 | 1012.3 |
| 20260507122035 | 33 | 234 | 0.0 | 0.0 | 0.00 | 0.00 | 0.00 | 85 | 1012.3 |
| 20260507121757 | 33 | 234 | 0.0 | 0.0 | 0.00 | 0.00 | 0.00 | 85 | 1012.3 |
| 20260507121529 | 32 | 234 | 0.0 | 0.0 | 0.00 | 0.00 | 0.00 | 85 | 1012.3 |
| 20260507120531 | 32 | 234 | 0.0 | 0.0 | 0.00 | 0.00 | 0.00 | 85 | 1012.3 |
| 20260507120031 | 32 | 234 | 0.0 | 0.0 | 0.00 | 0.00 | 0.00 | 84 | 1012.3 |
| 20260507115529 | 32 | 235 | 0.0 | 0.0 | 0.00 | 0.00 | 0.00 | 84 | 1012.3 |
| 20260507115027 | 32 | 235 | 0.0 | 0.0 | 0.00 | 0.00 | 0.00 | 84 | 1012.3 |
| 20260507114528 | 32 | 235 | 0.0 | 0.0 | 0.00 | 0.00 | 0.00 | 84 | 1012.2 |
| 20260507114025 | 32 | 235 | 0.0 | 0.0 | 0.00 | 0.00 | 0.00 | 83 | 1012.2 |
| 20260507113523 | 32 | 235 | 0.0 | 0.0 | 0.00 | 0.00 | 0.00 | 83 | 1012.2 |
| 20260507113023 | 32 | 235 | 0.0 | 0.0 | 0.00 | 0.00 | 0.00 | 83 | 1012.1 |
| 20260507112519 | 32 | 235 | 0.0 | 0.0 | 0.00 | 0.00 | 0.00 | 83 | 1012.1 |
| 20260507112018 | 32 | 235 | 0.0 | 0.0 | 0.00 | 0.00 | 0.00 | 83 | 1012.1 |
| 20260507111518 | 32 | 235 | 0.0 | 0.0 | 0.00 | 0.00 | 0.00 | 83 | 1012.1 |
| 20260507111241 | 32 | 235 | 0.0 | 0.0 | 0.00 | 0.00 | 0.00 | 83 | 1012.1 |
| 20260507110738 | 32 | 235 | 0.0 | 0.0 | 0.00 | 0.00 | 0.00 | 83 | 1012.1 |
| 20260507110016 | 32 | 235 | 0.0 | 0.0 | 0.00 | 0.00 | 0.00 | 83 | 1012.2 |
| 20260507105514 | 32 | 235 | 0.0 | 0.0 | 0.00 | 0.00 | 0.00 | 83 | 1012.1 |
| 20260507105013 | 32 | 235 | 0.0 | 0.0 | 0.00 | 0.00 | 0.00 | 82 | 1012.2 |
| 20260507104513 | 32 | 235 | 0.0 | 0.0 | 0.00 | 0.00 | 0.00 | 82 | 1012.1 |
| 20260507104014 | 32 | 235 | 0.0 | 0.0 | 0.00 | 0.00 | 0.00 | 82 | 1012.1 |
| 20260507103513 | 32 | 235 | 0.0 | 0.0 | 0.00 | 0.00 | 0.00 | 82 | 1012.1 |
| 20260507103014 | 32 | 235 | 0.0 | 0.0 | 0.00 | 0.00 | 0.00 | 82 | 1012.1 |
| 20260507102736 | 32 | 235 | 0.0 | 0.0 | 0.00 | 0.00 | 0.00 | 81 | 1012.2 |
| 20260507102012 | 32 | 235 | 0.0 | 0.0 | 0.00 | 0.00 | 0.00 | 81 | 1012.1 |
| 20260507101509 | 32 | 235 | 0.0 | 0.0 | 0.00 | 0.00 | 0.00 | 81 | 1012.2 |
| 20260507101010 | 33 | 235 | 0.0 | 0.0 | 0.00 | 0.00 | 0.00 | 81 | 1012.2 |
| 20260507100509 | 33 | 235 | 0.0 | 0.0 | 0.00 | 0.00 | 0.00 | 81 | 1012.2 |
| 20260507100007 | 33 | 235 | 0.0 | 0.0 | 0.00 | 0.00 | 0.00 | 81 | 1012.1 |
| 20260507095505 | 33 | 235 | 0.0 | 0.0 | 0.00 | 0.00 | 0.00 | 80 | 1012.2 |
| 20260507095223 | 33 | 235 | 0.0 | 0.0 | 0.00 | 0.00 | 0.00 | 80 | 1012.3 |
| 20260507094502 | 33 | 235 | 0.0 | 0.0 | 0.00 | 0.00 | 0.00 | 80 | 1012.2 |
| 20260507094000 | 33 | 235 | 0.0 | 0.0 | 0.00 | 0.00 | 0.00 | 79 | 1012.3 |
| 20260507093455 | 33 | 235 | 0.0 | 0.0 | 0.00 | 0.00 | 0.00 | 79 | 1012.3 |
| 20260507093233 | 33 | 235 | 0.0 | 0.0 | 0.00 | 0.00 | 0.00 | 79 | 1012.4 |
| 20260507092450 | 33 | 235 | 0.0 | 0.0 | 0.00 | 0.00 | 0.00 | 78 | 1012.3 |
| 20260507091945 | 33 | 254 | 0.0 | 0.0 | 0.00 | 0.00 | 0.00 | 78 | 1012.3 |
| 20260507091715 | 33 | 254 | 0.0 | 0.0 | 0.00 | 0.00 | 0.00 | 78 | 1012.3 |
| 20260507090947 | 33 | 254 | 0.0 | 0.0 | 0.00 | 0.00 | 0.00 | 78 | 1012.2 |
| 20260507090443 | 34 | 254 | 0.0 | 0.0 | 0.00 | 0.00 | 0.00 | 77 | 1012.3 |
| 20260507085941 | 34 | 254 | 0.0 | 0.0 | 0.00 | 0.00 | 0.00 | 77 | 1012.3 |
| 20260507085441 | 34 | 254 | 0.0 | 0.0 | 0.00 | 0.00 | 0.00 | 77 | 1012.2 |
| 20260507084942 | 34 | 254 | 0.0 | 0.0 | 0.00 | 0.00 | 0.00 | 76 | 1012.2 |
| 20260507084441 | 34 | 255 | 0.0 | 0.0 | 0.00 | 0.00 | 0.00 | 76 | 1012.2 |
| 20260507083941 | 34 | 255 | 0.0 | 0.0 | 0.00 | 0.00 | 0.00 | 76 | 1012.2 |
| 20260507083439 | 34 | 255 | 0.0 | 1.0 | 0.00 | 0.00 | 0.00 | 76 | 1012.2 |
| 20260507082937 | 34 | 255 | 0.0 | 1.0 | 0.00 | 0.00 | 0.00 | 76 | 1012.3 |
| 20260507082435 | 34 | 257 | 0.0 | 0.0 | 0.00 | 0.00 | 0.00 | 75 | 1012.3 |
| 20260507081933 | 34 | 257 | 0.0 | 0.0 | 0.00 | 0.00 | 0.00 | 75 | 1012.3 |
| 20260507081659 | 34 | 257 | 0.0 | 0.0 | 0.00 | 0.00 | 0.00 | 75 | 1012.3 |
| 20260507080930 | 34 | 257 | 0.0 | 0.0 | 0.00 | 0.00 | 0.00 | 74 | 1012.3 |
| 20260507080430 | 34 | 257 | 0.0 | 0.0 | 0.00 | 0.00 | 0.00 | 74 | 1012.3 |
| 20260507075925 | 35 | 257 | 0.0 | 0.0 | 0.00 | 0.00 | 0.00 | 74 | 1012.4 |
| 20260507075420 | 35 | 257 | 0.0 | 0.0 | 0.00 | 0.00 | 0.00 | 73 | 1012.3 |
| 20260507074921 | 35 | 257 | 0.0 | 0.0 | 0.00 | 0.00 | 0.00 | 73 | 1012.3 |
| 20260507074418 | 35 | 257 | 0.0 | 0.0 | 0.00 | 0.00 | 0.00 | 72 | 1012.4 |
| 20260507073917 | 35 | 257 | 0.0 | 0.0 | 0.00 | 0.00 | 0.00 | 72 | 1012.4 |
| 20260507073642 | 35 | 257 | 0.0 | 0.0 | 0.00 | 0.00 | 0.00 | 72 | 1012.4 |
| 20260507072915 | 35 | 257 | 0.0 | 0.0 | 0.00 | 0.00 | 0.00 | 72 | 1012.4 |
| 20260507072854 | 36 | 257 | 0.0 | 0.0 | 0.00 | 0.00 | 0.00 | 72 | 1012.5 |
| 20260507071912 | 36 | 257 | 0.0 | 0.0 | 0.00 | 0.00 | 0.00 | 71 | 1012.5 |
| 20260507071633 | 36 | 257 | 0.0 | 0.0 | 0.00 | 0.00 | 0.00 | 71 | 1012.6 |
| 20260507070907 | 36 | 257 | 0.0 | 0.0 | 0.00 | 0.00 | 0.00 | 71 | 1012.6 |
| 20260507070405 | 36 | 257 | 0.0 | 0.0 | 0.00 | 0.00 | 0.00 | 70 | 1012.7 |
| 20260507065903 | 37 | 257 | 0.0 | 0.0 | 0.00 | 0.00 | 0.00 | 70 | 1012.7 |
| 20260507065403 | 37 | 257 | 0.0 | 0.0 | 0.00 | 0.00 | 0.00 | 69 | 1012.8 |
| 20260507064859 | 37 | 257 | 0.0 | 0.0 | 0.00 | 0.00 | 0.00 | 69 | 1012.8 |
| 20260507064358 | 37 | 257 | 0.0 | 0.0 | 0.00 | 0.00 | 0.00 | 69 | 1012.9 |
| 20260507063856 | 37 | 257 | 0.0 | 0.0 | 0.00 | 0.00 | 0.00 | 69 | 1012.9 |
| 20260507063354 | 37 | 257 | 0.0 | 0.0 | 0.00 | 0.00 | 0.00 | 69 | 1012.9 |
| 20260507062854 | 37 | 257 | 0.0 | 0.0 | 0.00 | 0.00 | 0.00 | 68 | 1012.9 |
| 20260507062351 | 38 | 257 | 0.0 | 0.0 | 0.00 | 0.00 | 0.00 | 68 | 1013.0 |
| 20260507062113 | 38 | 257 | 0.0 | 0.0 | 0.00 | 0.00 | 0.00 | 67 | 1013.0 |
| 20260507061350 | 38 | 257 | 0.0 | 0.0 | 0.00 | 0.00 | 0.00 | 66 | 1013.0 |
| 20260507060849 | 38 | 257 | 0.0 | 0.0 | 0.00 | 0.00 | 0.00 | 65 | 1013.0 |
| 20260507060606 | 38 | 257 | 0.0 | 0.0 | 0.00 | 0.00 | 0.00 | 65 | 1013.0 |
| 20260507055844 | 38 | 257 | 0.0 | 0.0 | 0.00 | 0.00 | 0.00 | 64 | 1013.1 |
| 20260507055343 | 38 | 257 | 0.0 | 0.0 | 0.00 | 0.00 | 0.00 | 64 | 1013.1 |
| 20260507054842 | 38 | 257 | 0.0 | 0.0 | 0.00 | 0.00 | 0.00 | 63 | 1013.1 |
| 20260507054559 | 38 | 257 | 0.0 | 0.0 | 0.00 | 0.00 | 0.00 | 63 | 1013.2 |
| 20260507053837 | 39 | 257 | 0.0 | 0.0 | 0.00 | 0.00 | 0.00 | 63 | 1013.1 |
| 20260507053335 | 39 | 257 | 0.0 | 0.0 | 0.00 | 0.00 | 0.00 | 63 | 1013.1 |
| 20260507052835 | 39 | 258 | 0.0 | 0.0 | 0.00 | 0.00 | 0.00 | 63 | 1013.1 |
| 20260507052550 | 39 | 258 | 0.0 | 0.0 | 0.00 | 0.00 | 0.00 | 63 | 1013.2 |
| 20260507051828 | 39 | 258 | 0.0 | 0.0 | 0.00 | 0.00 | 0.00 | 64 | 1013.2 |
| 20260507051326 | 39 | 258 | 0.0 | 0.0 | 0.00 | 0.00 | 0.00 | 64 | 1013.2 |
| 20260507050828 | 39 | 258 | 0.0 | 0.0 | 0.00 | 0.00 | 0.00 | 64 | 1013.2 |
| 20260507050323 | 39 | 258 | 0.0 | 0.0 | 0.00 | 0.00 | 0.00 | 64 | 1013.3 |
| 20260507045823 | 39 | 257 | 0.0 | 0.0 | 0.00 | 0.00 | 0.00 | 64 | 1013.3 |
| 20260507045319 | 39 | 257 | 0.0 | 0.0 | 0.00 | 0.00 | 0.00 | 65 | 1013.3 |
| 20260507044817 | 39 | 257 | 0.0 | 0.0 | 0.00 | 0.00 | 0.00 | 64 | 1013.3 |
| 20260507044806 | 38 | 257 | 0.0 | 0.0 | 0.00 | 0.00 | 0.00 | 65 | 1013.4 |
| 20260507043817 | 38 | 257 | 0.0 | 0.0 | 0.00 | 0.00 | 0.00 | 65 | 1013.4 |
| 20260507043318 | 38 | 257 | 0.0 | 0.0 | 0.00 | 0.00 | 0.00 | 65 | 1013.4 |
| 20260507043037 | 38 | 257 | 0.0 | 0.0 | 0.00 | 0.00 | 0.00 | 65 | 1013.5 |
| 20260507042317 | 38 | 257 | 0.0 | 0.0 | 0.00 | 0.00 | 0.00 | 65 | 1013.5 |
| 20260507041817 | 38 | 258 | 0.0 | 0.0 | 0.00 | 0.00 | 0.00 | 65 | 1013.5 |
| 20260507041317 | 38 | 258 | 0.0 | 0.0 | 0.00 | 0.00 | 0.00 | 64 | 1013.6 |
| 20260507040818 | 38 | 258 | 0.0 | 0.0 | 0.00 | 0.00 | 0.00 | 64 | 1013.6 |
| 20260507040315 | 38 | 258 | 0.0 | 0.0 | 0.00 | 0.00 | 0.00 | 64 | 1013.6 |
| 20260507035815 | 38 | 258 | 0.0 | 0.0 | 0.00 | 0.00 | 0.00 | 64 | 1013.6 |
| 20260507035315 | 38 | 258 | 0.0 | 0.0 | 0.00 | 0.00 | 0.00 | 64 | 1013.6 |
| 20260507034815 | 38 | 258 | 0.0 | 0.0 | 0.00 | 0.00 | 0.00 | 63 | 1013.7 |
| 20260507034536 | 38 | 258 | 0.0 | 0.0 | 0.00 | 0.00 | 0.00 | 64 | 1013.7 |
| 20260507033816 | 38 | 258 | 0.0 | 0.0 | 0.00 | 0.00 | 0.00 | 63 | 1013.7 |
| 20260507033533 | 38 | 258 | 0.0 | 0.0 | 0.00 | 0.00 | 0.00 | 63 | 1013.7 |
| 20260507032807 | 38 | 258 | 0.0 | 0.0 | 0.00 | 0.00 | 0.00 | 62 | 1013.7 |
| 20260507032307 | 38 | 258 | 0.0 | 0.0 | 0.00 | 0.00 | 0.00 | 62 | 1013.7 |
| 20260507031807 | 38 | 258 | 0.0 | 0.0 | 0.00 | 0.00 | 0.00 | 62 | 1013.7 |
| 20260507031307 | 38 | 258 | 0.0 | 0.0 | 0.00 | 0.00 | 0.00 | 62 | 1013.9 |
| 20260507030807 | 38 | 258 | 0.0 | 0.0 | 0.00 | 0.00 | 0.00 | 61 | 1013.9 |
| 20260507030307 | 39 | 258 | 0.0 | 0.0 | 0.00 | 0.00 | 0.00 | 60 | 1013.9 |
| 20260507025807 | 39 | 258 | 0.0 | 0.0 | 0.00 | 0.00 | 0.00 | 59 | 1013.9 |
| 20260507025742 | 39 | 258 | 0.0 | 0.0 | 0.00 | 0.00 | 0.00 | 58 | 1014.0 |
| 20260507024804 | 39 | 258 | 0.0 | 0.0 | 0.00 | 0.00 | 0.00 | 57 | 1014.0 |
| 20260507024303 | 40 | 258 | 0.0 | 0.0 | 0.00 | 0.00 | 0.00 | 57 | 1014.0 |
| 20260507023804 | 40 | 258 | 0.0 | 0.0 | 0.00 | 0.00 | 0.00 | 56 | 1014.0 |
| 20260507023531 | 40 | 258 | 0.0 | 0.0 | 0.00 | 0.00 | 0.00 | 56 | 1014.0 |
| 20260507022803 | 40 | 258 | 0.0 | 0.0 | 0.00 | 0.00 | 0.00 | 55 | 1014.0 |
| 20260507022528 | 41 | 258 | 0.0 | 0.0 | 0.00 | 0.00 | 0.00 | 55 | 1014.1 |
| 20260507021804 | 41 | 258 | 0.0 | 0.0 | 0.00 | 0.00 | 0.00 | 54 | 1014.1 |
| 20260507021302 | 41 | 258 | 0.0 | 0.0 | 0.00 | 0.00 | 0.00 | 54 | 1014.1 |
| 20260507021028 | 41 | 257 | 0.0 | 1.0 | 0.00 | 0.00 | 0.00 | 53 | 1014.0 |
| 20260507020301 | 42 | 257 | 0.0 | 1.0 | 0.00 | 0.00 | 0.00 | 52 | 1014.1 |
| 20260507015800 | 42 | 258 | 0.0 | 1.0 | 0.00 | 0.00 | 0.00 | 52 | 1014.0 |
| 20260507015258 | 42 | 258 | 0.0 | 2.0 | 0.00 | 0.00 | 0.00 | 51 | 1014.0 |
| 20260507014759 | 42 | 258 | 0.0 | 2.0 | 0.00 | 0.00 | 0.00 | 51 | 1014.0 |
| 20260507014257 | 43 | 258 | 0.0 | 3.0 | 0.00 | 0.00 | 0.00 | 50 | 1013.9 |
| 20260507014235 | 43 | 258 | 0.0 | 3.0 | 0.00 | 0.00 | 0.00 | 50 | 1013.9 |
| 20260507013252 | 43 | 294 | 0.0 | 3.0 | 0.00 | 0.00 | 0.00 | 50 | 1013.9 |
| 20260507012751 | 43 | 274 | 0.0 | 2.0 | 0.00 | 0.00 | 0.00 | 50 | 1014.0 |
| 20260507012251 | 44 | 275 | 0.0 | 3.0 | 0.00 | 0.00 | 0.00 | 49 | 1013.9 |
| 20260507011805 | 44 | 277 | 0.0 | 5.0 | 0.00 | 0.00 | 0.00 | 48 | 1013.9 |
| 20260507011251 | 44 | 234 | 0.0 | 5.0 | 0.00 | 0.00 | 0.00 | 48 | 1013.9 |
| 20260507011238 | 44 | 277 | 0.0 | 3.0 | 0.00 | 0.00 | 0.00 | 47 | 1013.9 |
| 20260507010505 | 45 | 252 | 1.0 | 5.0 | 0.00 | 0.00 | 0.00 | 47 | 1013.9 |
| 20260507010008 | 45 | 248 | 1.0 | 5.0 | 0.00 | 0.00 | 0.00 | 47 | 1014.0 |
| 20260507004742 | 45 | 299 | 0.0 | 3.0 | 0.00 | 0.00 | 0.00 | 47 | 1014.0 |
| 20260507004241 | 45 | 265 | 0.0 | 4.0 | 0.00 | 0.00 | 0.00 | 48 | 1014.0 |
| 20260507004000 | 45 | 259 | 0.0 | 4.0 | 0.00 | 0.00 | 0.00 | 47 | 1014.0 |
| 20260507003239 | 45 | 254 | 0.0 | 6.0 | 0.00 | 0.00 | 0.00 | 47 | 1014.0 |
| 20260507002739 | 45 | 226 | 1.0 | 6.0 | 0.00 | 0.00 | 0.00 | 47 | 1014.0 |
| 20260507002239 | 45 | 290 | 0.0 | 4.0 | 0.00 | 0.00 | 0.00 | 47 | 1014.1 |
| 20260507001739 | 45 | 277 | 0.0 | 3.0 | 0.00 | 0.00 | 0.00 | 47 | 1014.1 |
| 20260507001237 | 45 | 234 | 0.0 | 3.0 | 0.00 | 0.00 | 0.00 | 47 | 1014.1 |
| 20260507000737 | 45 | 308 | 0.0 | 4.0 | 0.00 | 0.00 | 0.00 | 47 | 1014.1 |
| 20260507000236 | 45 | 307 | 0.0 | 4.0 | 0.00 | 0.00 | 0.00 | 46 | 1014.2 |
| 20260506235733 | 45 | 291 | 0.0 | 4.0 | 0.00 | 0.00 | 0.00 | 46 | 1014.2 |
| 20260506235235 | 45 | 295 | 0.0 | 3.0 | 0.00 | 0.00 | 0.00 | 46 | 1014.1 |
| 20260506234734 | 45 | 251 | 0.0 | 5.0 | 0.00 | 0.00 | 0.00 | 46 | 1014.2 |
| 20260506234234 | 45 | 291 | 1.0 | 5.0 | 0.00 | 0.00 | 0.00 | 46 | 1014.2 |
| 20260506233735 | 46 | 302 | 1.0 | 5.0 | 0.00 | 0.00 | 0.00 | 46 | 1014.3 |
| 20260506233232 | 46 | 297 | 1.0 | 5.0 | 0.00 | 0.00 | 0.00 | 46 | 1014.3 |
| 20260506232731 | 46 | 301 | 0.0 | 4.0 | 0.00 | 0.00 | 0.00 | 46 | 1014.3 |
| 20260506232244 | 46 | 278 | 0.0 | 5.0 | 0.00 | 0.00 | 0.00 | 46 | 1014.3 |
| 20260506231730 | 46 | 223 | 1.0 | 9.0 | 0.00 | 0.00 | 0.00 | 46 | 1014.4 |
| 20260506231231 | 46 | 277 | 0.0 | 9.0 | 0.00 | 0.00 | 0.00 | 45 | 1014.4 |
| 20260506230730 | 46 | 281 | 0.0 | 4.0 | 0.00 | 0.00 | 0.00 | 47 | 1014.3 |
| 20260506230228 | 46 | 316 | 1.0 | 6.0 | 0.00 | 0.00 | 0.00 | 46 | 1014.3 |
| 20260506225729 | 46 | 13 | 1.0 | 6.0 | 0.00 | 0.00 | 0.00 | 46 | 1014.3 |